Regional Weather Roundup
Issued by NWS

Home | Current Version | Previous Version | Graphics & Text | Print | Product List | Glossary On
Versions: 1 2 3 4 5 6 7 8 9 10 11 12 13 14 15 16 17 18 19 20 21 22 23 24 25 26 27 28 29 30 31 32 33 34 35 36 37 38 39 40 41 42 43 44 45 46 47 48 49 50
000
ASUS43 KTOP 301408
RWRKS

WEATHER ROUNDUP FOR KANSAS
NATIONAL WEATHER SERVICE GOODLAND KS
900 AM CDT THU MAR 30 2017

NOTE:  "FAIR" INDICATES FEW OR NO CLOUDS BELOW 12,000 FEET WITH NO
SIGNIFICANT WEATHER AND/OR OBSTRUCTIONS TO VISIBILITY.

KSZ001>006-013>018-027>032-041>047-301500-
NORTHWEST KANSAS

CITY           SKY/WX    TMP DP  RH WIND       PRES   REMARKS
GOODLAND       FOG       35  35 100 N10       29.82S VSB 1/4 WCI  27
HAYS             N/A     39  35  86 N22G29    29.78S WCI  29
HILL CITY      CLOUDY    38  38 100 N12       29.83R WCI  30
RUSSELL        CLOUDY    39  36  89 N18G29    29.75R WCI  30
$$

KSZ061>065-074>080-084>089-301500-
SOUTHWEST KANSAS

CITY           SKY/WX    TMP DP  RH WIND       PRES   REMARKS
DODGE CITY     CLOUDY    39  37  92 NW14      29.81R WCI  31
ELKHART          N/A     42  34  73 NW3         N/A
GARDEN CITY    CLOUDY    39  36  89 N20       29.82S WCI  29
GREAT BEND     CLOUDY    40  36  86 NW24      29.75S WCI  29
LIBERAL        SUNNY     41  36  81 NW9       29.84R
PRATT          CLOUDY    38  34  86 NW25G33   29.75S WCI  26
$$

KSZ066>073-081>083-090>101-301500-
SOUTHEAST KANSAS

CITY           SKY/WX    TMP DP  RH WIND       PRES   REMARKS
CHANUTE        LGT RAIN  45  43  93 SW13      29.57S FOG
COFFEYVILLE    CLOUDY    46  44  93 SW16      29.62S
HUTCHINSON     CLOUDY    41  37  87 NW18G29   29.69R
MEDICINE LODGE   N/A     43  36  76 NW18G29   29.74R
NEWTON         CLOUDY    40  39  97 NW28G36   29.65R WCI  29
PARSONS        CLOUDY    45  44  97 SW13      29.61S FOG
WICHITA INTL   DRIZZLE   42  42 100 NW24G31   29.67R
WICHITA JABRA  CLOUDY    42  40  92 NW21G29   29.65R
WICHITA MCCONL CLOUDY    42  38  87 NW18G25   29.66R
WINFIELD       CLOUDY    43  39  86 NW15G25   29.69R
$$

KSZ007>012-019>026-033>040-048>060-102>105-301500-
NORTHEAST KANSAS

CITY           SKY/WX    TMP DP  RH WIND       PRES   REMARKS
CONCORDIA      CLOUDY    39  38  96 N17G28    29.70S WCI  30
EMPORIA        LGT RAIN  45  45 100 NW16      29.56R
LAWRENCE       CLOUDY    48  48 100 NE3       29.57S FOG
MANHATTAN      LGT RAIN  43  41  93 N10G22    29.63R
MARYSVILLE     LGT RAIN  41  39  93 N15       29.66R
OLATHE IND     CLOUDY    46  45  96 SE7       29.56S FOG
OLATHE EXE     CLOUDY    45  45 100 SE6       29.56S FOG
SALINA         LGT RAIN  42  39  89 N21       29.70R
TOPEKA BILLARD CLOUDY    50  49  96 NW5       29.57R
TOPEKA FORBES  CLOUDY    50  48  93 N7        29.56S
$$




USA.gov is the U.S. government's official web portal to all federal, state and local government web resources and services.